tititudorancea.com
Station Historical Data
Daily Summary for April 29, 2018 Units:  Metric    English   Both
« Previous Day
Next Day »
Daily Weekly Monthly Yearly Custom
  High: Low: Average:
Temperature: -17.8 °C 7.2 °C 12.2 °C
Dew Point: -17.8 °C 6.3 °C 7.9 °C
Humidity: Humidity % 48 % 77 %
Wind Speed: 0 km/h 0 km/h 7.9 km/h
Wind Gust: 0 km/h - -
Wind:- - South
Pressure: 0 hPa 1026.3 hPa -
Precipitation: 0.25 mm    
Historical Graphs
 
 
Ararat weather Find more about Weather in Ararat, AU


 



 


Tabular Data for April 29, 2018
Time Temperature Dew Point Pressure Wind Wind Speed Wind Gust Humidity Rainfall Rate (Hourly)
-17.8 °C -17.8 °C 0 hPa Calm     Humidity % 0 mm
00:03 10.2 °C 8.4 °C 1026.6 hPa South 6.3 km/h 9.7 km/h 89 % 0 mm
00:08 10.1 °C 8.6 °C 1026.6 hPa South 6.1 km/h 7.4 km/h 90 % 0 mm
00:13 10.1 °C 8.6 °C 1026.6 hPa South 8.4 km/h 14.8 km/h 90 % 0 mm
00:18 10.1 °C 8.6 °C 1026.6 hPa South 9.5 km/h 14.8 km/h 90 % 0 mm
00:23 10.1 °C 8.6 °C 1026.6 hPa South 6.8 km/h 7.4 km/h 90 % 0 mm
00:28 10.2 °C 8.7 °C 1026.6 hPa South 9 km/h 13 km/h 90 % 0 mm
00:33 10.3 °C 8.7 °C 1026.6 hPa South 7.7 km/h 13 km/h 90 % 0 mm
00:38 10.3 °C 8.8 °C 1026.6 hPa South 6.8 km/h 9.3 km/h 90 % 0 mm
00:43 10.3 °C 8.8 °C 1026.6 hPa South 6.8 km/h 9.3 km/h 90 % 0 mm
00:48 10.3 °C 8.8 °C 1026.6 hPa South 4.3 km/h 7.4 km/h 90 % 0 mm
00:49 10.3 °C 8.7 °C 1026.6 hPa South 3.9 km/h 12.9 km/h 90 % 0 mm
00:54 10.3 °C 8.7 °C 1026.6 hPa South 4.5 km/h 8 km/h 90 % 0 mm
00:59 10.3 °C 8.7 °C 1026.6 hPa South 4.3 km/h 8 km/h 90 % 0 mm
01:04 10.3 °C 8.7 °C 1026.6 hPa South 6.9 km/h 14.8 km/h 90 % 0 mm
01:09 10.3 °C 8.7 °C 1026.6 hPa South 6 km/h 9.3 km/h 90 % 0 mm
01:14 10.3 °C 8.7 °C 1026.6 hPa South 9.5 km/h 14.8 km/h 90 % 0 mm
01:19 10.3 °C 8.7 °C 1026.6 hPa South 7.9 km/h 11.1 km/h 90 % 0 mm
01:24 10.3 °C 8.7 °C 1026.3 hPa South 5.8 km/h 9.7 km/h 90 % 0 mm
01:29 10.3 °C 8.7 °C 1026.3 hPa South 4 km/h 6.4 km/h 90 % 0 mm
01:34 10.2 °C 8.7 °C 1026.6 hPa South 6.8 km/h 9.3 km/h 90 % 0 mm
01:39 10.2 °C 8.6 °C 1026.3 hPa South 3.7 km/h 9.3 km/h 90 % 0 mm
01:44 10.1 °C 8.6 °C 1026.3 hPa South 4 km/h 7.4 km/h 90 % 0 mm
01:49 10.1 °C 8.6 °C 1026.3 hPa South 4.8 km/h 7.4 km/h 90 % 0 mm
01:54 10.1 °C 8.6 °C 1026.3 hPa South 4.3 km/h 7.4 km/h 90 % 0 mm
01:59 10 °C 8.4 °C 1026.3 hPa South 3.1 km/h 7.4 km/h 90 % 0 mm
02:04 9.8 °C 8.3 °C 1026.3 hPa South 4.8 km/h 5.6 km/h 90 % 0 mm
02:09 9.8 °C 8.2 °C 1026.3 hPa South 6.1 km/h 9.3 km/h 90 % 0 mm
02:14 9.6 °C 8.1 °C 1026.6 hPa South 4.7 km/h 8 km/h 90 % 0 mm
02:19 9.5 °C 8.1 °C 1026.6 hPa South 6.6 km/h 7.4 km/h 91 % 0 mm
02:24 9.4 °C 8.1 °C 1026.3 hPa South 6.4 km/h 9.3 km/h 91 % 0 mm
02:29 9.4 °C 8 °C 1026.3 hPa South 9 km/h 14.8 km/h 91 % 0 mm
02:34 9.3 °C 7.9 °C 1026.3 hPa South 7.1 km/h 11.3 km/h 91 % 0 mm
02:39 9.3 °C 7.9 °C 1026.3 hPa South 7.9 km/h 9.7 km/h 91 % 0 mm
02:44 9.2 °C 7.8 °C 1026.3 hPa South 7.1 km/h 9.7 km/h 91 % 0 mm
02:49 9.1 °C 7.7 °C 1026.3 hPa South 6.1 km/h 9.7 km/h 91 % 0 mm
02:54 9.1 °C 7.7 °C 1026.3 hPa South 7.4 km/h 13 km/h 91 % 0 mm
02:59 9 °C 7.8 °C 1026.3 hPa South 8 km/h 13 km/h 92 % 0 mm
03:04 9 °C 8.4 °C 1026.3 hPa South 9.5 km/h 11.3 km/h 96 % 0 mm
03:09 8.9 °C 7.7 °C 1026.3 hPa North 8 km/h 13 km/h 92 % 0 mm
03:14 8.9 °C 7.7 °C 1026.3 hPa South 6.8 km/h 11.1 km/h 92 % 0 mm
03:19 8.9 °C 7.7 °C 1026.3 hPa South 6 km/h 9.3 km/h 92 % 0 mm
03:24 8.8 °C 7.6 °C 1026.3 hPa South 5.8 km/h 9.7 km/h 92 % 0 mm
03:29 8.7 °C 7.5 °C 1026.3 hPa South 10 km/h 13 km/h 92 % 0 mm
03:34 8.7 °C 7.4 °C 1026.6 hPa South 5.8 km/h 13 km/h 92 % 0 mm
03:39 8.6 °C 7.3 °C 1026.6 hPa North 7.2 km/h 9.7 km/h 92 % 0 mm
03:44 8.5 °C 7.4 °C 1026.6 hPa South 6.8 km/h 16.7 km/h 93 % 0 mm
03:49 8.4 °C 7.4 °C 1026.6 hPa South 7.7 km/h 13 km/h 93 % 0 mm
03:54 8.4 °C 7.3 °C 1026.6 hPa North 7.1 km/h 11.3 km/h 93 % 0 mm
03:59 8.3 °C 7.3 °C 1026.6 hPa South 6 km/h 9.7 km/h 93 % 0 mm
04:04 8.3 °C 7.2 °C 1026.6 hPa South 8.9 km/h 13 km/h 93 % 0 mm
04:09 8.3 °C 7.2 °C 1026.6 hPa South 7.6 km/h 13 km/h 93 % 0 mm
04:14 8.3 °C 7.2 °C 1026.6 hPa South 6.1 km/h 9.7 km/h 93 % 0 mm
04:19 8.2 °C 7.2 °C 1026.6 hPa North 6.4 km/h 9.3 km/h 93 % 0 mm
04:24 8.2 °C 7.1 °C 1026.6 hPa North 5.5 km/h 8 km/h 93 % 0 mm
04:29 8.1 °C 7.2 °C 1026.6 hPa South 5.3 km/h 8 km/h 94 % 0 mm
04:34 8.1 °C 7.2 °C 1026.6 hPa South 7.1 km/h 13 km/h 94 % 0 mm
04:39 8.1 °C 7.2 °C 1026.6 hPa North 6.1 km/h 11.1 km/h 94 % 0 mm
04:44 8.1 °C 7.2 °C 1027 hPa South 7.6 km/h 11.1 km/h 94 % 0 mm
04:49 8.2 °C 7.3 °C 1026.6 hPa North 6.3 km/h 11.1 km/h 94 % 0 mm
04:54 8.3 °C 7.4 °C 1026.6 hPa South 7.4 km/h 9.3 km/h 94 % 0 mm
04:59 8.3 °C 7.4 °C 1026.6 hPa South 8 km/h 11.1 km/h 94 % 0 mm
05:04 8.3 °C 7.4 °C 1027 hPa North 8.2 km/h 11.1 km/h 94 % 0 mm
05:09 8.3 °C 7.4 °C 1027 hPa South 7.7 km/h 9.7 km/h 94 % 0 mm
05:14 8.3 °C 7.4 °C 1027 hPa South 6.8 km/h 11.1 km/h 94 % 0 mm
05:19 8.2 °C 7.3 °C 1027 hPa South 6.9 km/h 7.4 km/h 94 % 0 mm
05:24 8.2 °C 7.3 °C 1027 hPa North 6.3 km/h 13 km/h 94 % 0 mm
05:29 8.1 °C 7.2 °C 1027 hPa South 7.7 km/h 8 km/h 94 % 0 mm
05:34 8 °C 7.1 °C 1027 hPa South 6.3 km/h 9.3 km/h 94 % 0 mm
05:39 7.9 °C 7.1 °C 1027 hPa South 8.9 km/h 11.3 km/h 94 % 0 mm
05:44 7.9 °C 7 °C 1027 hPa South 4.8 km/h 11.1 km/h 94 % 0 mm
05:49 7.9 °C 7 °C 1027 hPa South 4.2 km/h 7.4 km/h 94 % 0 mm
05:54 7.8 °C 6.9 °C 1027 hPa South 7.6 km/h 13 km/h 94 % 0 mm
05:59 7.7 °C 6.8 °C 1027 hPa North 6.4 km/h 9.3 km/h 94 % 0 mm
06:04 7.7 °C 6.8 °C 1027 hPa South 4.5 km/h 11.1 km/h 94 % 0 mm
06:09 7.6 °C 6.7 °C 1027.3 hPa South 5.3 km/h 9.3 km/h 94 % 0 mm
06:14 7.5 °C 6.6 °C 1027.3 hPa South 5.3 km/h 8 km/h 94 % 0 mm
06:19 7.4 °C 6.6 °C 1027.3 hPa South 6.8 km/h 11.1 km/h 94 % 0 mm
06:24 7.4 °C 6.7 °C 1027.3 hPa South 7.1 km/h 11.1 km/h 95 % 0 mm
06:29 7.3 °C 6.4 °C 1027.3 hPa South 6.4 km/h 11.1 km/h 94 % 0 mm
06:34 7.3 °C 6.4 °C 1027.3 hPa North 6 km/h 9.3 km/h 94 % 0 mm
06:39 7.3 °C 6.6 °C 1027.3 hPa South 6.4 km/h 7.4 km/h 95 % 0 mm
06:44 7.2 °C 6.3 °C 1027.3 hPa North 6.6 km/h 9.7 km/h 94 % 0 mm
06:46 7.2 °C 6.5 °C 1027.3 hPa North 6.8 km/h 9.3 km/h 95 % 0 mm
06:51 7.3 °C 6.6 °C 1027.3 hPa North 6.6 km/h 9.3 km/h 95 % 0 mm
06:56 7.4 °C 6.7 °C 1027.7 hPa South 3.9 km/h 7.4 km/h 95 % 0 mm
07:01 7.4 °C 6.7 °C 1027.7 hPa South 7.6 km/h 11.1 km/h 95 % 0 mm
07:05 7.6 °C 6.8 °C 1027.7 hPa South 6 km/h 11.1 km/h 95 % 0 mm
07:10 7.6 °C 6.9 °C 1027.7 hPa South 7.4 km/h 13 km/h 95 % 0 mm
07:15 7.8 °C 7 °C 1027.7 hPa South 6.6 km/h 11.1 km/h 95 % 0 mm
07:20 7.9 °C 7.2 °C 1027.7 hPa North 6.6 km/h 9.3 km/h 95 % 0 mm
07:25 8.1 °C 7.3 °C 1028 hPa South 2.3 km/h 11.1 km/h 95 % 0 mm
07:30 8.2 °C 7.4 °C 1028 hPa South 7.1 km/h 9.3 km/h 95 % 0 mm
07:35 8.3 °C 7.6 °C 1028 hPa South 6 km/h 11.1 km/h 95 % 0 mm
07:40 8.5 °C 7.7 °C 1028 hPa South 7.7 km/h 13 km/h 95 % 0 mm
07:45 8.7 °C 7.8 °C 1028 hPa South 6.3 km/h 11.1 km/h 94 % 0 mm
07:50 8.9 °C 8 °C 1028.3 hPa South 8 km/h 11.3 km/h 94 % 0 mm
07:55 9 °C 8.1 °C 1028.3 hPa South 8.4 km/h 11.1 km/h 94 % 0 mm
08:00 9.2 °C 8.1 °C 1028.7 hPa South 10 km/h 14.8 km/h 93 % 0 mm
08:05 9.4 °C 8.3 °C 1028.7 hPa South 7.2 km/h 14.8 km/h 93 % 0 mm
08:10 9.6 °C 8.5 °C 1028.7 hPa South 9 km/h 13 km/h 93 % 0 mm
08:15 9.7 °C 8.5 °C 1028.7 hPa South 5.6 km/h 7.4 km/h 92 % 0 mm
08:20 9.9 °C 8.5 °C 1028.7 hPa South 6.8 km/h 9.7 km/h 91 % 0 mm
08:25 10.1 °C 8.7 °C 1028.7 hPa South 7.6 km/h 11.1 km/h 91 % 0.25 mm
08:30 10.2 °C 8.6 °C 1028.7 hPa South 6.3 km/h 7.4 km/h 90 % 0.25 mm
08:35 10.3 °C 8.7 °C 1028.7 hPa South 6.1 km/h 7.4 km/h 90 % 0.25 mm
08:40 10.4 °C 8.9 °C 1028.7 hPa South 3.2 km/h 5.6 km/h 90 % 0.25 mm
08:45 10.6 °C 8.9 °C 1029 hPa South 6.6 km/h 9.3 km/h 89 % 0.25 mm
08:50 10.7 °C 8.8 °C 1029 hPa South 7.1 km/h 9.3 km/h 88 % 0.25 mm
08:55 10.9 °C 9.1 °C 1029 hPa South 5.5 km/h 9.3 km/h 88 % 0.25 mm
09:00 11.1 °C 9.2 °C 1029 hPa South 4.2 km/h 8 km/h 88 % 0.25 mm
09:05 11.2 °C 9.1 °C 1029 hPa South 9.2 km/h 16.7 km/h 87 % 0.25 mm
09:10 11.3 °C 9.2 °C 1029 hPa South 7.4 km/h 11.1 km/h 87 % 0.25 mm
09:15 11.4 °C 9.2 °C 1029 hPa South 7.9 km/h 11.1 km/h 86 % 0.25 mm
09:20 11.6 °C 9.3 °C 1029 hPa South 5.3 km/h 7.4 km/h 86 % 0.25 mm
09:25 11.8 °C 9.5 °C 1029 hPa South 11.6 km/h 16.1 km/h 86 % 0 mm
09:28 11.8 °C 9.4 °C 1029 hPa South 9.3 km/h 16.7 km/h 85 % 0 mm
09:33 11.9 °C 9.3 °C 1029 hPa South 8.9 km/h 16.7 km/h 84 % 0 mm
09:38 12.1 °C 9.7 °C 1029 hPa South 6 km/h 11.1 km/h 85 % 0 mm
09:43 12.3 °C 9.7 °C 1029 hPa South 3.9 km/h 9.3 km/h 84 % 0 mm
09:48 12.6 °C 9.9 °C 1028.7 hPa South 5.1 km/h 7.4 km/h 84 % 0 mm
09:53 12.8 °C 9.9 °C 1028.7 hPa South 8 km/h 13 km/h 83 % 0 mm
09:58 12.9 °C 9.9 °C 1028.7 hPa SSE 11.9 km/h 18.5 km/h 82 % 0 mm
10:03 13.2 °C 10.2 °C 1028.7 hPa SE 12.9 km/h 20.4 km/h 82 % 0 mm
10:08 13.4 °C 9.8 °C 1028.7 hPa SSE 11.4 km/h 18.5 km/h 79 % 0 mm
10:13 13.5 °C 9.6 °C 1028.7 hPa SSE 9.7 km/h 13 km/h 77 % 0 mm
10:18 13.6 °C 9.4 °C 1028.7 hPa SSE 16.4 km/h 22.2 km/h 76 % 0 mm
10:23 13.6 °C 9.4 °C 1028.7 hPa SSE 15.1 km/h 24.1 km/h 76 % 0 mm
10:28 13.8 °C 9.3 °C 1028.7 hPa SSE 13.5 km/h 18.5 km/h 74 % 0 mm
10:33 14.1 °C 9.3 °C 1029 hPa SE 21.7 km/h 27.4 km/h 73 % 0 mm
10:38 14.4 °C 9.1 °C 1028.7 hPa SE 12.9 km/h 27.8 km/h 70 % 0 mm
10:43 14.7 °C 9.3 °C 1028.7 hPa SE 16.7 km/h 22.2 km/h 70 % 0 mm
10:48 14.7 °C 8.8 °C 1029 hPa South 19 km/h 29.6 km/h 68 % 0 mm
10:53 14.8 °C 9.2 °C 1029 hPa SE 13.5 km/h 18.5 km/h 69 % 0 mm
10:58 15.1 °C 9.4 °C 1029 hPa SE 15.9 km/h 24.1 km/h 69 % 0 mm
11:03 15.3 °C 8.9 °C 1029 hPa South 12.7 km/h 18.5 km/h 66 % 0 mm
11:08 15 °C 8.9 °C 1029 hPa SSE 10 km/h 14.8 km/h 67 % 0 mm
11:13 15 °C 8.7 °C 1029 hPa SSE 12.4 km/h 18.5 km/h 66 % 0 mm
11:18 15 °C 8.9 °C 1029 hPa SSE 12.4 km/h 18.5 km/h 67 % 0 mm
11:23 15.3 °C 8.8 °C 1029 hPa SSE 14.3 km/h 20.4 km/h 65 % 0 mm
11:28 15.4 °C 8.7 °C 1029 hPa South 20.3 km/h 27.8 km/h 64 % 0 mm
11:33 15.5 °C 8.5 °C 1029 hPa SE 13.5 km/h 18.5 km/h 63 % 0 mm
11:38 15.9 °C 8.6 °C 1028.7 hPa SSE 15 km/h 24.1 km/h 62 % 0 mm
11:43 16.2 °C 8.7 °C 1028.7 hPa South 14.2 km/h 20.4 km/h 61 % 0 mm
11:48 16.4 °C 8.7 °C 1028.7 hPa ESE 12.7 km/h 20.4 km/h 60 % 0 mm
11:53 16.6 °C 8.6 °C 1028.7 hPa South 15.6 km/h 24.1 km/h 59 % 0 mm
11:58 16.1 °C 8.6 °C 1028.7 hPa SSE 11.3 km/h 18.5 km/h 61 % 0 mm
12:03 16 °C 8.5 °C 1028.7 hPa South 19 km/h 29.6 km/h 61 % 0 mm
12:08 16.2 °C 8.4 °C 1028.7 hPa SSE 12.1 km/h 20.4 km/h 60 % 0 mm
12:13 16.1 °C 8.6 °C 1028.3 hPa South 10.6 km/h 18.5 km/h 61 % 0 mm
12:18 16.2 °C 8.4 °C 1028.3 hPa SE 11.4 km/h 22.2 km/h 60 % 0 mm
12:23 16.5 °C 8.4 °C 1028.3 hPa SSE 16.9 km/h 24.1 km/h 59 % 0 mm
12:28 16.8 °C 8.7 °C 1028.3 hPa SSE 9.2 km/h 20.4 km/h 59 % 0 mm
12:33 16.8 °C 8.2 °C 1028 hPa South 13.4 km/h 18.5 km/h 57 % 0 mm
12:38 16.9 °C 8.6 °C 1028 hPa SSE 17.9 km/h 24.1 km/h 58 % 0 mm
12:43 17.1 °C 8.5 °C 1028 hPa SSE 16.7 km/h 25.9 km/h 57 % 0 mm
12:48 17.1 °C 8.8 °C 1027.7 hPa SE 8.5 km/h 16.1 km/h 58 % 0 mm
12:53 17.1 °C 8.5 °C 1027.7 hPa SSE 10.9 km/h 22.2 km/h 57 % 0 mm
12:58 17 °C 8.2 °C 1027.7 hPa SSE 11.4 km/h 18.5 km/h 56 % 0 mm
13:03 17.2 °C 8.4 °C 1027.7 hPa SSE 17.5 km/h 20.4 km/h 56 % 0 mm
13:08 17.4 °C 8.3 °C 1027.3 hPa SSE 12.6 km/h 18.5 km/h 55 % 0 mm
13:13 17.6 °C 8.1 °C 1027.3 hPa SE 14.2 km/h 22.2 km/h 54 % 0 mm
13:18 17.7 °C 8.6 °C 1027.3 hPa SSE 13.5 km/h 24.1 km/h 55 % 0 mm
13:23 17.6 °C 8.4 °C 1027.3 hPa SSE 12.4 km/h 14.8 km/h 55 % 0 mm
13:28 17.7 °C 8.3 °C 1027.3 hPa SSE 13.8 km/h 20.4 km/h 54 % 0 mm
13:33 17.7 °C 7.9 °C 1027 hPa SE 12.1 km/h 20.4 km/h 53 % 0 mm
13:38 17.7 °C 7.9 °C 1027 hPa SSW 12.9 km/h 18.5 km/h 53 % 0 mm
13:43 17.8 °C 7.8 °C 1027 hPa SE 14.3 km/h 19.3 km/h 52 % 0 mm
13:48 17.9 °C 7.9 °C 1027 hPa SSE 12.2 km/h 16.7 km/h 52 % 0 mm
13:53 18.2 °C 8.2 °C 1027 hPa South 9.3 km/h 13 km/h 52 % 0 mm
13:58 18 °C 8.3 °C 1027 hPa SE 16.1 km/h 22.2 km/h 53 % 0 mm
14:03 17.8 °C 8.1 °C 1027 hPa South 12.9 km/h 18.5 km/h 53 % 0 mm
14:08 17.7 °C 8 °C 1027 hPa SSW 13.7 km/h 18.5 km/h 53 % 0 mm
14:13 17.9 °C 8.2 °C 1027 hPa SE 13.7 km/h 22.2 km/h 53 % 0 mm
14:18 18.1 °C 7.8 °C 1027 hPa SE 6.4 km/h 12.9 km/h 51 % 0 mm
14:23 18.2 °C 7.9 °C 1027 hPa SSE 8.5 km/h 16.7 km/h 51 % 0 mm
14:28 18.3 °C 8 °C 1027 hPa SE 10 km/h 13 km/h 51 % 0 mm
14:33 18.4 °C 8.1 °C 1027 hPa SSE 10 km/h 17.7 km/h 51 % 0 mm
14:38 18.2 °C 7.9 °C 1027 hPa SW 15.8 km/h 18.5 km/h 51 % 0 mm
14:43 18.1 °C 7.4 °C 1027 hPa SSW 12.7 km/h 25.9 km/h 50 % 0 mm
14:48 18.2 °C 7.8 °C 1026.6 hPa SSE 13 km/h 17.7 km/h 51 % 0 mm
14:53 18.3 °C 7.7 °C 1027 hPa South 10.3 km/h 18.5 km/h 50 % 0 mm
14:58 18.2 °C 7.9 °C 1027 hPa SSE 10.9 km/h 18.5 km/h 51 % 0 mm
15:03 18.2 °C 7.6 °C 1026.6 hPa South 5.5 km/h 22.2 km/h 50 % 0 mm
15:08 18.2 °C 7.6 °C 1026.6 hPa South 16.4 km/h 24.1 km/h 50 % 0 mm
15:13 18 °C 7.7 °C 1027 hPa South 11.1 km/h 18.5 km/h 51 % 0 mm
15:18 18 °C 7.7 °C 1027 hPa SSE 10.8 km/h 14.8 km/h 51 % 0 mm
15:23 18.2 °C 7.9 °C 1027 hPa SSE 7.2 km/h 16.7 km/h 51 % 0 mm
15:28 18.2 °C 7.3 °C 1027 hPa South 11.3 km/h 18.5 km/h 49 % 0 mm
15:33 18.1 °C 6.9 °C 1027 hPa South 10.9 km/h 18.5 km/h 48 % 0 mm
15:34 18.1 °C 7.2 °C 1027 hPa SSE 7.9 km/h 18.5 km/h 49 % 0 mm
15:39 18.1 °C 7.2 °C 1027 hPa South 13.8 km/h 20.4 km/h 49 % 0 mm
15:44 17.9 °C 7.7 °C 1027 hPa SSE 9.7 km/h 20.4 km/h 51 % 0 mm
15:49 18.1 °C 7.8 °C 1027 hPa SSE 15.9 km/h 24.1 km/h 51 % 0 mm
15:54 18.1 °C 7.5 °C 1027 hPa SSE 7.7 km/h 14.8 km/h 50 % 0 mm
15:59 18 °C 7.4 °C 1026.6 hPa SSE 9.3 km/h 20.4 km/h 50 % 0 mm
16:04 17.9 °C 7.3 °C 1026.6 hPa SSE 13.7 km/h 18.5 km/h 50 % 0 mm
16:09 17.9 °C 7.3 °C 1026.6 hPa SSE 13.7 km/h 16.7 km/h 50 % 0 mm
16:14 17.8 °C 7.5 °C 1026.6 hPa South 10.1 km/h 16.7 km/h 51 % 0 mm
16:19 17.8 °C 7.6 °C 1026.6 hPa South 9.8 km/h 14.8 km/h 51 % 0 mm
16:24 17.7 °C 7.4 °C 1026.6 hPa South 16.4 km/h 20.4 km/h 51 % 0 mm
16:29 17.7 °C 7.4 °C 1026.6 hPa SSE 7.6 km/h 24.1 km/h 51 % 0 mm
16:34 17.6 °C 7.3 °C 1026.6 hPa South 9 km/h 17.7 km/h 51 % 0 mm
16:39 17.6 °C 7 °C 1026.6 hPa South 10.6 km/h 13 km/h 50 % 0 mm
16:45 17.5 °C 6.9 °C 1026.6 hPa South 7.6 km/h 14.8 km/h 50 % 0 mm
16:50 17.5 °C 6.9 °C 1026.6 hPa South 7.1 km/h 13 km/h 50 % 0 mm
16:55 17.4 °C 7.2 °C 1026.6 hPa SSE 7.1 km/h 14.8 km/h 51 % 0 mm
17:00 17.3 °C 7.1 °C 1026.6 hPa SSE 11.9 km/h 14.8 km/h 51 % 0 mm
17:05 17.2 °C 7.3 °C 1026.6 hPa SSE 4.3 km/h 7.4 km/h 52 % 0 mm
17:10 17.1 °C 7.1 °C 1026.6 hPa SSE 8.7 km/h 13 km/h 52 % 0 mm
17:15 16.9 °C 7.3 °C 1026.6 hPa SSE 7.4 km/h 9.3 km/h 53 % 0 mm
17:20 16.8 °C 7.2 °C 1026.6 hPa SSE 5.8 km/h 12.9 km/h 53 % 0 mm
17:30 16.5 °C 6.9 °C 1027 hPa SSE 5.3 km/h 13 km/h 53 % 0 mm
17:35 16.3 °C 6.9 °C 1027 hPa SSE 5.5 km/h 7.4 km/h 54 % 0 mm
17:40 16.1 °C 7 °C 1027 hPa SSE 6.1 km/h 14.5 km/h 55 % 0 mm
17:45 15.8 °C 7 °C 1027 hPa SSE 5.5 km/h 9.3 km/h 56 % 0 mm
17:50 15.5 °C 7 °C 1027 hPa SSE 5.6 km/h 7.4 km/h 57 % 0 mm
17:55 15.3 °C 7.3 °C 1027 hPa SSE 1.9 km/h 5.6 km/h 59 % 0 mm
18:00 15 °C 7.1 °C 1027 hPa SSE 1.4 km/h 3.7 km/h 59 % 0 mm
18:05 14.8 °C 7.1 °C 1027 hPa SSE 2.4 km/h 7.4 km/h 60 % 0 mm
18:10 14.6 °C 7.2 °C 1027 hPa SSE 2.7 km/h 6.4 km/h 61 % 0 mm
18:15 14.5 °C 7.1 °C 1027 hPa SSE 2.4 km/h 3.7 km/h 61 % 0 mm
18:20 14.3 °C 7.1 °C 1027.3 hPa SSE 2.4 km/h 7.4 km/h 62 % 0 mm
18:25 14.1 °C 7.2 °C 1027.3 hPa SSE 6.1 km/h 8 km/h 63 % 0 mm
18:30 13.9 °C 7.2 °C 1027.3 hPa SSE 2.9 km/h 7.4 km/h 64 % 0 mm
18:35 13.8 °C 7.1 °C 1027.3 hPa SSE 3.1 km/h 3.1 km/h 64 % 0 mm
18:40 13.7 °C 7.2 °C 1027.3 hPa SSE 4 km/h 9.3 km/h 65 % 0 mm
18:45 13.6 °C 7.2 °C 1027.7 hPa SSE 5.3 km/h 6.4 km/h 65 % 0 mm
18:50 13.5 °C 7.3 °C 1027.7 hPa SSE 6.3 km/h 7.4 km/h 66 % 0 mm
18:55 13.3 °C 7.1 °C 1027.7 hPa SSE 5.8 km/h 11.1 km/h 66 % 0 mm
19:00 13.2 °C 7.2 °C 1027.7 hPa SSE 2.3 km/h 11.1 km/h 67 % 0 mm
19:05 13.1 °C 7.3 °C 1027.7 hPa SSE 9.7 km/h 11.3 km/h 68 % 0 mm
19:10 12.9 °C 7.4 °C 1027.7 hPa SSE 9.2 km/h 9.3 km/h 69 % 0 mm
19:15 12.8 °C 7.5 °C 1027.7 hPa SSE 6.1 km/h 9.3 km/h 70 % 0 mm
19:20 12.7 °C 7.6 °C 1028 hPa SSE 8.9 km/h 11.3 km/h 71 % 0 mm
19:25 12.7 °C 7.7 °C 1028 hPa SSE 10.5 km/h 10.5 km/h 72 % 0 mm
19:30 12.6 °C 7.9 °C 1028 hPa SSE 10 km/h 13 km/h 73 % 0 mm
19:35 12.6 °C 7.8 °C 1028 hPa SSE 8.2 km/h 9.3 km/h 73 % 0 mm
19:40 12.4 °C 7.9 °C 1028 hPa SSE 8 km/h 11.1 km/h 74 % 0 mm
19:45 12.3 °C 8 °C 1028 hPa South 8.7 km/h 14.8 km/h 75 % 0 mm
19:50 12.3 °C 8.2 °C 1028 hPa South 8.5 km/h 11.1 km/h 76 % 0 mm
19:55 12.2 °C 8.3 °C 1028 hPa South 11.1 km/h 14.8 km/h 77 % 0 mm
20:00 12.1 °C 8.3 °C 1028 hPa South 9.2 km/h 14.8 km/h 78 % 0 mm
20:05 12 °C 8.4 °C 1028 hPa South 6.6 km/h 9.3 km/h 79 % 0 mm
20:10 11.9 °C 8.4 °C 1028 hPa South 5.8 km/h 7.4 km/h 79 % 0 mm
20:15 11.9 °C 8.6 °C 1028 hPa South 8 km/h 11.3 km/h 80 % 0 mm
20:20 11.8 °C 8.5 °C 1028 hPa South 6.8 km/h 9.3 km/h 80 % 0 mm
20:25 11.8 °C 8.6 °C 1028 hPa South 8 km/h 13 km/h 81 % 0 mm
20:30 11.7 °C 8.5 °C 1028 hPa North 8.4 km/h 13 km/h 81 % 0 mm
20:35 11.6 °C 8.7 °C 1028 hPa South 9.5 km/h 13 km/h 82 % 0 mm
20:40 11.6 °C 8.6 °C 1028 hPa South 4.2 km/h 5.6 km/h 82 % 0 mm
20:45 11.4 °C 8.7 °C 1028.3 hPa South 7.4 km/h 7.4 km/h 83 % 0 mm
20:50 11.4 °C 8.6 °C 1028.3 hPa South 6.4 km/h 9.3 km/h 83 % 0 mm
20:55 11.3 °C 8.7 °C 1028.3 hPa South 4.5 km/h 8 km/h 84 % 0 mm
21:00 11.3 °C 8.7 °C 1028.3 hPa South 8.7 km/h 9.7 km/h 84 % 0 mm
21:05 11.2 °C 8.8 °C 1028.3 hPa South 9.5 km/h 11.3 km/h 85 % 0 mm
21:10 11.2 °C 8.7 °C 1028.3 hPa South 4.7 km/h 7.4 km/h 85 % 0 mm
21:15 11.1 °C 8.7 °C 1028.3 hPa South 4 km/h 7.4 km/h 85 % 0 mm
21:20 11 °C 8.6 °C 1028.3 hPa South 4.5 km/h 7.4 km/h 85 % 0 mm
21:25 10.9 °C 8.5 °C 1028.3 hPa South 5.5 km/h 7.4 km/h 85 % 0 mm
21:30 10.7 °C 8.5 °C 1028.3 hPa South 2.6 km/h 3.2 km/h 86 % 0 mm
21:35 10.6 °C 8.4 °C 1028.3 hPa South 0.8 km/h 7.4 km/h 86 % 0 mm
21:40 10.3 °C 8.1 °C 1028.3 hPa South 3.4 km/h 5.6 km/h 86 % 0 mm
21:45 10.2 °C 8.1 °C 1028.3 hPa South 1.1 km/h 3.7 km/h 87 % 0 mm
21:50 10 °C 7.9 °C 1028.3 hPa South 4.2 km/h 6.4 km/h 87 % 0 mm
21:55 9.9 °C 8 °C 1028.3 hPa South 1.4 km/h 3.7 km/h 88 % 0 mm
22:00 9.8 °C 7.9 °C 1028.3 hPa South 4.2 km/h 5.6 km/h 88 % 0 mm
22:05 9.7 °C 7.8 °C 1028.3 hPa Calm     88 % 0 mm
22:10 9.6 °C 7.7 °C 1028.3 hPa Calm     88 % 0 mm
22:15 9.6 °C 7.9 °C 1028.3 hPa Calm     89 % 0 mm
22:20 9.4 °C 7.7 °C 1028.3 hPa South 0.2 km/h 1.9 km/h 89 % 0 mm
22:25 9.4 °C 7.9 °C 1028.3 hPa Calm     90 % 0 mm
22:30 9.4 °C 7.9 °C 1028.3 hPa South 2.6 km/h 6.4 km/h 90 % 0 mm
22:35 9.5 °C 8.1 °C 1028.3 hPa South 7.2 km/h 9.3 km/h 91 % 0 mm
22:38 9.6 °C 8.2 °C 1028.3 hPa South 5.6 km/h 9.3 km/h 91 % 0 mm
22:43 9.7 °C 8.3 °C 1028.3 hPa South 5.6 km/h 9.3 km/h 91 % 0 mm
22:48 9.7 °C 8.3 °C 1028.3 hPa South 4.5 km/h 5.6 km/h 91 % 0 mm
22:53 9.7 °C 8.3 °C 1028.3 hPa South 3.7 km/h 3.7 km/h 91 % 0 mm
22:58 9.7 °C 8.3 °C 1028.3 hPa Calm     91 % 0 mm
23:03 9.6 °C 8.2 °C 1028 hPa South 0.5 km/h 1.9 km/h 91 % 0 mm
23:08 9.5 °C 8.1 °C 1028.3 hPa North 1.3 km/h 3.7 km/h 91 % 0 mm
23:13 9.5 °C 8.1 °C 1028.3 hPa South 2.7 km/h 7.4 km/h 91 % 0 mm
23:18 9.5 °C 8.1 °C 1028.3 hPa South 0.5 km/h 1.9 km/h 91 % 0 mm
23:23 9.4 °C 8 °C 1028.3 hPa North 0.8 km/h 1.9 km/h 91 % 0 mm
23:28 9.3 °C 8.1 °C 1028.3 hPa North 2.6 km/h 5.6 km/h 92 % 0 mm
23:33 9.2 °C 7.8 °C 1028.3 hPa South 3.5 km/h 6.4 km/h 91 % 0 mm
23:38 9.2 °C 8 °C 1028.3 hPa South 4.5 km/h 7.4 km/h 92 % 0 mm
23:43 9.4 °C 8.2 °C 1028.3 hPa South 9 km/h 11.3 km/h 92 % 0 mm
23:48 9.4 °C 8.2 °C 1028.3 hPa South 6.9 km/h 7.4 km/h 92 % 0 mm
23:53 9.4 °C 8.4 °C 1028.3 hPa South 6.8 km/h 13 km/h 93 % 0 mm
23:58 9.5 °C 8.4 °C 1028.3 hPa South 10 km/h 13 km/h 93 % 0 mm
Ararat Weather
Compliments of Weather Underground - 2.5 mb
Click here to send mail.


ABOUT

Live weather data from Ararat, Victoria, Australia, 3377
Data uploaded from Cumulus every 5 minutes to Weather Underground.
This site then downloads the raw data for formatting and display.
Metric and imperial data can be displayed. Graphs and historical data available.
Includes Sun and Moon times and rain image live from BOM.

Check out Ararat Weather on Facebook, Twitter and Google +

Help support ongoing costs by checking out the ads





Follow @AraratWeather